Weather Roundup
Issued by NWS Indianapolis, IN

Home | Current Version | Previous Version | Text Only | Print | Product List | Glossary On
Versions: 1 2 3 4 5 6 7 8 9 10 11 12 13 14 15 16 17 18 19 20 21 22 23 24 25 26 27 28 29 30 31 32 33 34 35 36 37 38 39 40 41 42 43 44 45 46 47 48 49 50
000
NZUS99 KIND 280109
HRRIND

WEATHER ROUNDUP FOR INDIANA AND SURROUNDING STATES
NATIONAL WEATHER SERVICE INDIANAPOLIS IN
800 PM EST SAT FEB 27 2021

...INDIANA...

CITY           SKY/WX    TMP DP  RH WIND       PRES   REMARKS
INDIANAPOLIS   CLOUDY    48  42  80 SE7       30.10S
EAGLE CREEK    MOCLDY    50  42  74 SE3       30.10R
ANDERSON       MOCLDY    44  40  85 E3        30.14R
MOUNT COMFORT  MOCLDY    46  46 100 CALM      30.13R
GREENWOOD      MOCLDY    48  43  82 CALM      30.11S
SHELBYVILLE    MOCLDY    48  42  80 CALM      30.11R
$$

CITY           SKY/WX    TMP DP  RH WIND       PRES   REMARKS
LAFAYETTE      MOCLDY    48  40  73 E8        30.09S
KOKOMO         MOCLDY    38  38 100 E5        30.13R WCI  34
FRANKFORT      MOCLDY    43  41  93 E9        30.10R
CRAWFORDSVILLE MOCLDY    45  39  81 CALM      30.09S
MUNCIE         MOCLDY    44  38  79 SE7       30.14R
GREENCASTLE    FAIR      48  42  79 E7        30.09F
TERRE HAUTE    MOCLDY    47  43  86 E8        30.07F
BLOOMINGTON    CLOUDY    49  42  77 SE6       30.08S
COLUMBUS       CLEAR     45  41  87 CALM      30.11F
$$

CITY           SKY/WX    TMP DP  RH WIND       PRES   REMARKS
GARY           CLEAR     43  37  81 SE6       30.09S
VALPARAISO     MOCLDY    40  36  86 E7        30.10R WCI  35
LA PORTE       MOCLDY    34  32  93 SE6       30.11S WCI  29
MICHIGAN CITY  MOCLDY    41  34  75 CALM      30.10F
SOUTH BEND     MOCLDY    40  34  79 SE6       30.12S WCI  36
GOSHEN         MOCLDY    38  34  85 SE7       30.13R WCI  33
ANGOLA         MOCLDY    36  34  93 CALM      30.14S
KENDALLVILLE   FAIR      38  36  92 SE5       30.14R WCI  34
AUBURN         MOCLDY    37  36  93 CALM      30.16R
RENSSELAER     MOCLDY    37  36  93 E6        30.10S WCI  33
KNOX           MOCLDY    37  36  93 SE7       30.10S WCI  32
PLYMOUTH       CLEAR     39  36  87 SE6       30.12R WCI  35
ROCHESTER      MOCLDY    37  36  93 E5        30.13S WCI  34
WARSAW         MOCLDY    39  34  81 SE3       30.13S
FORT WAYNE     CLOUDY    39  34  82 E5        30.15R WCI  36
MONTICELLO     MOCLDY    43  38  82 E5        30.11R
LOGANSPORT     MOCLDY    37  34  87 CALM      30.13R
PERU/GRISSOM   MOCLDY    42  42 100 E7        30.11R
HUNTINGTON     MOCLDY    39  36  90 CALM      30.14S
MARION         MOCLDY    42  39  88 CALM      30.14R
PORTLAND       FAIR      45  36  70 SE5       30.13S
RICHMOND       FAIR      41  41 100 E8        30.15R
BATESVILLE     PTCLDY    50  45  81 E3        30.13R
WASHINGTON     CLOUDY    49  45  84 SE9       30.06F
FRENCH LICK    CLOUDY    50  43  76 E6        30.09S
MADISON        CLOUDY    50  45  81 CALM      30.14S
HUNTINGBURG    CLOUDY    51  48  89 E6        30.06F
JEFFERSONVILLE MOCLDY    52  48  86 CALM      30.11S
EVANSVILLE     CLOUDY    51  44  77 E7        30.04F
$$

...ILLINOIS...

CITY           SKY/WX    TMP DP  RH WIND       PRES   REMARKS
CHICAGO        MOCLDY    44  37  76 SE5       30.05S
MOLINE         PTCLDY    38  32  79 E6        29.96F WCI  33
ROCKFORD       MOCLDY    40  33  76 CALM      30.05S
KANKAKEE       MOCLDY    39  37  92 SE7       30.08S WCI  34
PEORIA         MOCLDY    50  39  66 SE8       30.00F
BLOOMINGTON    MOCLDY    43  39  86 SE9       30.04S
CHAMPAIGN      MOCLDY    43  40  89 E10       30.05S
RANTOUL        MOCLDY    44  39  85 E7        30.06S
DANVILLE       CLOUDY    46  40  77 E5        30.08R
QUINCY         CLOUDY    50  38  63 SE12      29.93R
SPRINGFIELD    MOCLDY    49  41  74 E12       29.98F
DECATUR        MOCLDY    44  33  65 E9        30.01F
MATTOON        MOCLDY    49  43  80 E10       30.02F
PARIS          MOCLDY    48  44  85 E5        30.07S
EFFINGHAM      MOCLDY    51  45  79 E9        30.04S
ROBINSON       CLOUDY    48  44  85 SE6       30.07F
OLNEY          CLOUDY    51  44  78 E9        30.03F
LAWRENCEVILLE  CLOUDY    48  45  89 E7        30.07R
MOUNT VERNON   CLOUDY    50  48  93 SE8       30.03R
FAIRFIELD      CLOUDY    51  46  83 CALM      30.04R
MOUNT CARMEL   CLOUDY    49  45  86 E8        30.06S
CARMI          CLOUDY    50  46  87 CALM      30.05R
$$

...KENTUCKY...

CITY           SKY/WX    TMP DP  RH WIND       PRES   REMARKS
LOUISVILLE     LGT RAIN  54  48  80 E8        30.09F
PADUCAH        LGT RAIN  53  50  89 E7        30.02F
OWENSBORO      CLOUDY    52  49  89 SE8       30.07F
FORT KNOX      LGT RAIN  52  52 100 E7        30.10
LEXINGTON      CLOUDY    51  47  86 SE7       30.14R
BOWLING GREEN  CLOUDY    55  51  86 SE6       30.07F
JACKSON        CLOUDY    55  51  86 CALM      30.17R
$$

...OHIO...

CITY           SKY/WX    TMP DP  RH WIND       PRES   REMARKS
CINCINNATI     MOCLDY    52  43  71 SE10      30.14R
DAYTON         MOCLDY    46  39  76 E7        30.17R
TOLEDO         MOCLDY    40  34  79 CALM      30.17S
DEFIANCE       MOCLDY    38  33  82 CALM      30.17R
FINDLAY        PTCLDY    41  36  82 SE9       30.17R
LIMA           MOCLDY    40  36  86 SE9       30.17R WCI  34
WRIGHT-PAT AFB PTCLDY    47  41  78 E7        30.17R
COLUMBUS       MOCLDY    42  38  85 NE5       30.18S
CLEVELAND      MOCLDY    40  35  83 S5        30.19R WCI  37
$$

...MICHIGAN...

CITY           SKY/WX    TMP DP  RH WIND       PRES   REMARKS
DETROIT        MOCLDY    41  34  76 S10       30.18R
GRAND RAPIDS   PTCLDY    37  31  78 E3        30.11S
LANSING        CLEAR     38  32  79 CALM      30.14R
KALAMAZOO      PTCLDY    41  33  73 SE5       30.13R
BATTLE CREEK   PTCLDY    40  33  76 S7        30.13R WCI  35
MARSHALL       PTCLDY    40  34  79 SE3       30.14R
JACKSON        PTCLDY    40  32  73 SE5       30.15R WCI  37
BENTON HARBOR  PTCLDY    41  35  79 SE9       30.10S
STURGIS        MOCLDY    37  35  90 SE3       30.13S
COLDWATER      PTCLDY    39  34  81 CALM      30.13F
HILLSDALE      PTCLDY    37  35  90 CALM      30.13F
$$

...OTHER LOCATIONS...

CITY           SKY/WX    TMP DP  RH WIND       PRES   REMARKS
SAINT LOUIS MO CLOUDY    54  44  69 SE13      29.95S
CAPE GIRARDEAU RAIN      53  50  89 SE7       29.99F FOG
MILWAUKEE WI   MOCLDY    42  32  67 S6        30.06R
NASHVILLE TN   TSTM      57  54  89 NW3       30.09R VSB 1
$$





USA.gov is the U.S. government's official web portal to all federal, state and local government web resources and services.